Theta_e
316 317 318 319 320 321 322 324 324 325 324 322 320 320 319 318 317 310 300 310 321 330 327 319 317 316 319 317 320 318 310 306 307 307 309 312 312 313 316 316 316 319 317 323 332
315 315 316 317 319 320 321 322 324 324 324 324 321 321 319 318 310 305 311 317 320 327 316 313 308 315 312 313 318 311 306 308 312 313 312 312 312 313 314 314 315 317 323 327 332
313 314 314 315 317 318 320 321 323 323 323 324 323 322 320 317 303 298 318 318 319 319 320 319 318 314 308 312 312 310 302 310 312 314 314 313 312 313 312 311 316 316 319 326 329
312 312 313 314 314 316 318 319 322 322 323 323 323 322 319 310 290 308 316 321 326 316 318 313 312 307 305 304 312 305 310 311 312 314 313 312 315 313 313 315 316 318 320 325 326
310 311 312 312 313 313 315 317 319 321 322 323 322 321 311 302 302 310 315 323 319 312 308 307 306 305 301 305 309 308 307 311 313 312 312 312 313 314 314 319 316 318 318 321 324
310 309 310 310 311 312 313 315 317 319 321 322 322 319 306 297 311 310 312 320 317 311 307 311 306 309 304 305 304 307 309 309 311 312 312 310 310 311 314 319 317 317 318 320 321
309 309 309 310 310 311 312 313 315 318 320 321 322 313 304 303 311 310 311 311 319 314 308 314 316 309 309 304 309 307 302 306 308 309 308 310 304 305 312 314 314 317 319 320 321
308 309 309 309 309 310 312 312 314 316 319 319 321 313 302 313 312 308 309 310 320 317 316 317 317 312 309 310 307 301 301 295 301 306 308 307 296 304 310 311 310 311 313 314 317
307 307 307 307 308 309 310 312 313 315 317 318 312 308 300 315 305 310 310 306 313 315 316 317 314 306 308 299 296 299 290 293 295 305 303 304 297 303 308 309 308 310 311 312 314
306 306 306 306 307 308 309 311 312 313 314 314 311 302 303 301 307 309 311 309 308 311 308 307 305 299 300 296 285 290 290 292 293 298 302 300 299 303 306 307 307 308 310 311 312
305 306 306 306 306 307 307 306 300 298 304 298 299 299 302 306 307 306 308 306 308 306 296 301 294 290 294 297 293 291 292 291 294 298 299 298 298 300 304 306 306 307 308 309 310
305 305 305 305 305 307 307 297 299 303 295 303 301 302 305 305 299 300 307 299 300 295 298 296 290 294 295 297 295 291 290 290 294 298 298 295 295 299 302 302 304 304 305 307 308
304 305 305 305 305 304 301 299 307 305 293 297 301 299 302 303 298 298 303 302 297 294 294 290 292 296 294 293 293 293 290 289 288 295 297 295 291 294 299 302 303 305 306 306 306
304 305 305 304 299 300 297 304 306 303 284 288 294 299 301 303 296 304 303 301 298 294 295 293 296 294 292 290 292 287 294 293 291 289 284 293 282 291 293 295 299 302 303 305 306
304 305 305 305 298 296 298 304 306 298 273 291 294 306 302 297 296 297 304 300 294 294 294 290 292 291 291 291 294 289 295 294 292 290 289 288 285 288 293 292 296 301 304 306 308
303 304 305 302 301 300 304 304 300 280 273 286 293 293 293 296 295 297 297 300 301 295 295 293 297 295 294 295 296 296 295 294 293 291 282 286 286 286 290 292 295 301 303 305 305
302 303 303 303 295 303 304 297 279 274 287 284 287 291 291 290 291 292 292 289 289 285 286 291 292 295 296 291 296 294 290 282 280 280 280 288 286 287 292 294 296 298 301 303 305
302 303 303 302 303 303 298 284 273 281 283 289 290 290 286 291 290 290 289 287 292 292 288 284 282 291 295 292 289 291 289 282 275 278 281 288 282 288 296 298 299 300 301 302 302
302 300 299 301 303 302 288 276 277 280 286 286 289 285 285 289 289 288 288 287 290 292 285 285 284 293 295 295 294 290 286 291 283 281 281 284 288 292 296 296 298 300 300 301 299
298 296 295 302 302 295 282 278 282 287 288 288 282 286 283 285 285 286 286 291 289 293 296 290 283 290 293 296 295 293 294 284 285 276 275 281 283 285 291 294 297 298 300 299 296
295 286 295 302 299 285 278 280 283 285 289 285 284 284 286 286 287 285 286 290 293 293 295 292 289 285 291 289 288 288 288 289 288 285 278 276 281 292 292 295 297 299 301 298 295
289 282 295 298 283 284 280 283 286 285 287 285 286 286 285 287 286 286 286 289 295 294 288 293 288 283 285 293 295 293 290 290 283 281 284 283 283 293 295 296 298 298 298 296 294
285 286 296 295 280 280 283 283 285 284 285 285 284 287 288 285 281 287 289 294 295 293 291 292 284 280 281 286 290 289 291 291 290 288 283 280 283 295 295 295 296 296 294 293 291
286 279 284 287 285 283 281 281 280 286 285 286 285 285 284 283 287 285 286 292 294 295 296 295 288 284 280 284 288 285 288 291 289 283 284 285 287 292 292 294 293 293 292 291 290
286 281 284 280 282 281 282 281 280 280 285 287 284 284 283 280 282 284 288 288 291 294 294 291 284 287 287 289 288 288 287 289 287 288 284 287 287 292 294 294 293 293 291 289 288
283 281 282 277 280 281 282 280 280 282 283 281 282 284 284 281 282 282 288 288 287 291 291 292 285 286 283 288 287 285 288 289 289 289 289 289 288 295 297 296 293 291 289 288 287
289 288 287 281 280 280 280 280 281 284 285 286 285 283 283 285 287 285 291 292 290 288 288 288 285 284 280 286 285 279 284 287 289 290 290 286 291 295 293 292 292 290 289 288 286
Wind_Speed
10 9 9 11 11 10 10 10 13 11 9 7 4 2 1 3 4 3 7 3 2 8 10 8 5 5 3 1 2 2 4 5 4 6 4 5 6 2 1 3 3 3 1 5 8
11 10 9 9 11 11 10 10 11 12 11 9 6 4 1 2 3 7 3 9 10 8 4 2 2 3 3 1 2 4 4 6 1 3 2 4 4 5 5 6 5 4 5 5 10
10 11 10 8 9 10 11 10 8 11 12 11 8 5 3 1 4 2 1 4 6 10 4 1 2 3 6 3 5 3 6 5 4 4 2 2 4 2 5 6 6 6 7 8 9
10 9 9 10 7 8 10 10 9 10 11 11 10 8 4 1 5 3 7 10 4 11 7 7 6 7 7 8 5 7 6 5 4 4 4 3 0 3 7 3 2 4 2 7 10
11 9 9 9 8 7 8 10 10 10 10 12 11 11 4 1 6 1 6 3 6 11 13 11 11 7 10 6 6 7 5 5 2 2 2 1 7 6 8 7 2 3 3 6 7
12 11 9 7 9 8 8 9 10 10 10 10 13 13 4 7 2 2 3 2 5 7 12 9 7 4 5 4 11 2 8 4 3 5 3 6 11 5 9 11 9 8 10 9 8
13 10 10 9 9 9 9 9 11 10 11 10 11 11 6 12 4 3 3 3 2 4 10 6 1 9 7 5 2 2 5 3 8 5 5 4 17 18 18 12 11 12 13 11 11
16 11 10 9 8 9 10 9 10 11 11 10 10 10 7 13 7 4 2 6 6 3 2 2 1 5 4 5 4 6 4 8 5 9 6 11 19 1 15 19 20 20 18 16 13
14 12 11 10 8 9 10 9 7 10 10 11 7 9 6 6 11 15 4 2 3 4 2 3 3 3 4 8 5 7 6 13 8 10 8 16 15 5 7 12 16 17 17 15 14
11 11 10 9 10 9 9 10 5 5 4 1 4 7 5 5 7 8 8 9 4 8 6 7 5 8 10 12 12 11 9 8 11 6 13 15 25 10 4 8 12 14 14 13 12
12 13 12 12 11 8 6 4 3 3 9 6 7 8 8 7 6 9 8 13 5 9 9 13 9 17 19 20 7 9 13 11 5 4 8 18 24 21 17 17 16 15 14 15 17
15 15 14 14 12 11 8 6 8 3 7 16 7 20 6 5 6 5 14 13 11 15 13 9 21 13 11 15 18 8 11 11 3 4 7 13 23 22 20 21 23 22 21 21 20
15 17 15 15 15 10 12 16 2 11 5 10 20 7 18 7 5 14 18 14 17 18 23 19 4 19 15 16 18 19 18 10 5 2 9 11 23 24 19 24 23 21 21 20 22
16 18 18 18 10 10 13 12 7 7 5 11 12 13 9 10 12 10 17 12 11 22 20 17 18 15 17 23 19 19 14 15 11 5 8 2 14 14 5 8 10 17 17 19 18
14 23 23 24 7 13 7 11 8 4 8 12 18 11 20 17 13 16 16 8 14 14 13 11 13 17 20 17 19 10 9 14 15 14 12 17 11 8 3 9 10 12 13 12 10
11 7 18 15 9 8 9 11 7 8 12 10 14 19 20 25 12 10 13 3 2 11 18 17 5 19 14 10 19 9 10 8 7 8 11 18 16 17 17 12 13 12 11 9 6
11 9 12 9 14 10 8 7 8 13 3 7 12 21 29 18 20 13 17 14 12 11 15 15 11 5 11 13 14 16 15 6 7 9 13 4 13 21 4 6 9 12 10 7 6
14 10 11 9 9 13 7 7 13 10 13 2 12 21 29 25 21 19 20 19 20 21 12 15 13 18 13 15 11 23 20 8 11 10 10 10 15 9 3 18 16 13 12 7 8
3 3 4 7 11 9 9 13 10 5 13 5 13 12 19 23 15 20 23 24 22 21 16 16 19 8 14 13 18 19 23 16 9 2 4 10 13 13 11 10 10 12 10 8 10
1 2 3 9 12 9 7 16 6 5 4 20 15 13 13 22 17 23 22 20 14 19 18 9 10 10 18 14 18 13 16 12 11 9 13 13 16 15 6 14 17 13 11 11 13
3 2 1 10 7 3 5 6 3 1 5 8 19 10 13 12 19 15 17 15 30 27 25 13 12 5 15 21 21 10 14 11 9 12 9 9 13 17 19 14 12 15 14 15 16
3 3 4 8 5 2 3 6 8 7 2 3 3 10 9 10 20 20 28 26 25 30 32 27 11 12 19 10 18 24 23 25 10 15 16 15 15 6 2 8 12 7 12 15 15
4 2 2 4 5 5 2 2 2 4 6 6 5 7 7 10 11 21 21 24 22 30 23 20 10 7 6 5 7 20 20 20 18 4 14 13 14 11 8 2 4 12 15 15 15
5 5 2 2 0 5 6 5 7 5 4 5 5 4 5 9 11 9 17 14 18 28 26 17 17 22 19 20 13 18 27 22 24 14 16 16 21 19 9 14 11 14 15 16 16
3 5 3 7 8 4 4 7 12 9 6 10 7 12 7 7 16 25 17 12 9 22 24 15 15 25 26 23 11 19 23 29 25 25 20 23 23 24 22 11 16 18 17 17 16
7 6 3 3 4 10 6 9 12 9 10 7 10 5 7 10 13 14 25 17 13 17 24 22 7 14 22 25 21 13 20 23 28 30 27 23 21 27 22 9 16 19 20 20 18
3 3 5 6 6 9 6 7 6 6 8 9 11 10 10 13 10 13 3 8 6 6 22 18 13 11 21 27 22 17 18 23 25 29 29 26 29 28 14 16 19 20 21 19 18
Wind_Direction
289 304 309 294 282 280 285 256 233 221 220 232 225 225 338 341 310 272 247 251 249 345 333 325 336 328 327 60 43 291 229 202 175 187 142 154 198 132 120 186 193 167 15 81 132
290 281 299 308 293 287 283 286 243 229 215 219 216 209 225 335 301 262 297 290 290 324 294 330 279 323 211 195 139 235 231 207 139 189 195 175 223 170 196 185 205 182 149 132 158
287 287 282 296 314 299 289 280 275 231 224 206 198 183 197 313 272 186 40 345 260 245 236 213 232 218 205 217 180 169 230 186 202 208 233 194 216 210 215 214 220 211 167 160 172
283 293 297 284 303 325 306 295 281 251 224 215 190 167 153 284 259 164 345 325 277 189 195 184 193 184 198 196 187 211 231 201 172 187 173 208 314 230 233 242 10 230 161 171 186
268 266 276 291 282 293 303 311 300 269 238 214 193 153 154 205 255 148 328 38 94 171 186 187 189 187 198 199 175 224 218 207 153 164 239 191 232 252 248 248 218 182 216 212 212
252 253 263 260 277 275 290 298 299 280 253 226 195 150 151 217 126 223 247 88 122 170 184 194 205 186 192 202 209 214 216 226 262 221 243 245 251 210 235 246 235 229 236 229 236
244 237 243 243 251 273 274 289 290 288 257 241 208 171 200 210 170 155 129 112 141 175 178 191 172 190 157 172 208 175 194 257 233 218 226 220 256 234 239 231 242 236 242 244 238
250 234 235 240 241 257 263 271 283 283 257 241 227 194 236 207 163 179 150 93 77 175 202 187 215 155 196 125 127 204 226 224 194 202 220 202 250 297 228 233 238 242 246 251 252
244 246 241 236 246 250 259 263 286 284 266 237 220 218 236 155 190 212 218 274 84 135 136 147 192 195 169 178 183 197 221 224 257 218 208 213 266 246 218 227 243 243 246 251 257
238 242 228 239 237 248 249 254 264 307 235 200 237 178 208 175 174 185 185 183 162 144 158 170 182 202 205 193 203 195 212 213 221 190 222 233 253 241 234 237 240 253 249 243 245
242 233 229 236 235 235 240 234 192 247 210 203 192 217 134 129 128 179 159 157 143 184 180 185 200 206 203 209 224 225 215 218 207 197 226 240 257 257 248 245 248 247 248 254 256
235 236 238 230 225 231 231 217 217 32 218 219 227 209 148 169 153 152 169 169 183 191 185 185 227 206 214 215 217 209 218 225 232 224 228 259 262 264 257 251 247 248 249 255 263
247 237 231 233 228 236 230 224 233 17 249 214 217 188 199 175 197 181 185 186 193 194 197 209 165 196 184 198 211 225 229 212 239 152 235 283 270 254 248 249 246 250 255 255 252
265 250 235 225 235 217 233 229 231 93 254 203 202 209 179 186 233 175 191 174 198 208 200 230 221 195 205 219 204 226 221 229 219 234 254 194 284 263 187 222 227 234 240 241 245
298 239 231 207 186 194 188 187 174 78 235 177 179 172 166 181 117 200 189 188 200 180 183 210 186 194 207 210 200 239 179 201 212 231 269 238 266 253 185 238 220 223 223 227 238
333 275 213 206 202 196 171 168 137 206 216 162 150 183 172 193 181 137 173 243 163 188 220 216 216 201 209 195 190 142 134 148 197 222 244 232 227 258 240 232 218 205 221 216 216
309 274 212 195 203 178 169 150 214 219 117 179 179 175 189 181 184 174 177 188 184 172 200 214 190 188 199 179 187 184 167 169 203 210 240 200 216 249 298 326 242 226 228 214 179
304 264 205 188 174 171 178 209 227 195 197 259 180 185 191 181 196 179 181 197 216 211 192 202 203 201 183 194 179 200 191 191 213 221 250 160 233 239 218 219 231 221 238 178 167
27 88 157 184 174 171 190 220 229 207 208 210 185 186 195 199 178 185 190 197 195 204 206 205 225 184 188 190 167 198 213 220 272 83 259 220 249 283 234 241 234 230 226 225 151
97 103 189 177 164 170 192 218 242 244 277 206 216 208 202 191 196 193 197 195 198 196 222 203 221 188 191 198 214 195 192 195 217 222 230 247 251 253 195 225 228 225 213 165 144
104 173 202 148 130 158 215 194 220 242 229 236 229 240 220 181 206 190 185 207 202 202 209 218 227 137 161 203 186 179 193 218 223 230 228 254 242 241 241 232 217 225 213 167 155
122 208 151 147 171 171 187 177 175 172 217 177 285 258 233 226 207 200 205 204 204 201 202 210 235 221 203 212 220 205 203 195 192 204 226 247 251 130 164 246 251 231 163 157 150
156 153 171 185 206 168 183 189 262 149 181 199 204 216 259 246 238 231 210 213 192 197 195 179 208 190 182 236 227 223 216 215 228 271 213 216 249 262 200 149 185 162 159 155 149
139 155 233 210 132 175 170 176 184 207 184 191 198 211 252 258 236 227 228 208 202 204 208 187 219 218 220 213 178 202 213 211 211 216 224 222 245 246 225 223 167 163 165 158 157
153 189 177 183 188 157 185 176 193 194 217 202 206 220 187 252 283 243 198 218 198 204 207 202 221 217 232 246 232 205 211 211 213 220 220 230 227 251 248 201 188 172 161 166 168
143 148 140 111 169 177 199 206 210 191 171 214 230 172 185 231 242 294 211 208 204 206 201 210 217 207 225 233 233 227 216 212 215 219 227 239 242 244 257 207 178 181 175 179 176
125 92 129 160 145 179 209 233 233 198 228 227 208 218 223 238 227 262 62 142 153 171 207 196 210 197 231 224 224 226 219 212 218 220 223 224 232 242 229 204 191 190 190 180 172